Change the Weather History Date:

Tuesday, May 15, 2012

  Actual Average Record
Temperature  
Mean Temperature 67 °F 62 °F  
Max Temperature 84 °F 73 °F 93 °F (1894)
Min Temperature 50 °F 51 °F 35 °F (1920)
Degree Days  
Heating Degree Days 0 5  
Month to date heating degree days 34 95  
Since 1 July heating degree days 4559 5760  
Cooling Degree Days 2 2  
Month to date cooling degree days 38 20  
Year to date cooling degree days 89 34  
Growing Degree Days 17 (Base 50)    
Moisture  
Dew Point 47 °F    
Average Humidity 56    
Maximum Humidity 83    
Minimum Humidity 28    
Precipitation  
Precipitation T in 0.14 in 2.43 in (1968)
Month to date precipitation 1.48 2.10  
Year to date precipitation 8.45 12.10  
Snow  
Snow 0.00 in 0.00 in 0.00 in ()
Month to date snowfall 0.0 0.0  
Since 1 July snowfall 11.5 24.6  
Snow Depth 0.00 in    
Sea Level Pressure  
Sea Level Pressure 29.96 in    
Wind  
Wind Speed 7 mph (WSW)    
Max Wind Speed 20 mph    
Max Gust Speed 25 mph    
Visibility 10 miles    
Events      
T = Trace of Precipitation, MM = Missing Value Source: NWS Daily Summary

Daily Weather History Graph

Daily Weather History Graph

Search for Another Location

Airport or City:

Trip Planner

Search our weather history database for the weather conditions in past years. The results will help you decide how hot, cold, wet, or windy it might be!

Date:

Astronomy

May. 15, 2012 Rise Set
Actual Time 5:41 AM CDT 8:09 PM CDT
Civil Twilight 5:10 AM CDT 8:40 PM CDT
Nautical Twilight 4:31 AM CDT 9:19 PM CDT
Astronomical Twilight 3:48 AM CDT 10:02 PM CDT
Moon 2:44 AM CDT (5/15) 3:26 PM CDT (5/15)
Length of Visible Light 15h 30m
Length of Day
14h 28m
Waning Crescent, 23% of the Moon is Illuminated
May 15
Waning Crescent
May 20
New
May 28
First Quarter
Jun 4
Full
Jun 11
Last Quarter

Hourly Weather History & Observations

Time (CDT) Temp. Dew Point Humidity Pressure Visibility Wind Dir Wind Speed Gust Speed Precip Events Conditions
12:54 AM 60.1 °F 41.0 °F 49% 30.02 in 10.0 mi Calm Calm - N/A   Clear
1:54 AM 55.0 °F 44.1 °F 67% 30.00 in 10.0 mi Calm Calm - N/A   Clear
2:54 AM 52.0 °F 46.0 °F 80% 30.00 in 10.0 mi Calm Calm - N/A   Clear
3:54 AM 53.1 °F 45.0 °F 74% 30.00 in 10.0 mi Calm Calm - N/A   Clear
4:54 AM 53.1 °F 43.0 °F 69% 30.00 in 10.0 mi Calm Calm - N/A   Clear
5:54 AM 50.0 °F 45.0 °F 83% 30.01 in 10.0 mi Calm Calm - N/A   Clear
6:54 AM 53.1 °F 46.0 °F 77% 30.02 in 10.0 mi SSW 3.5 mph - N/A   Clear
7:54 AM 62.1 °F 46.9 °F 58% 30.03 in 10.0 mi West 5.8 mph - N/A   Clear
8:54 AM 70.0 °F 46.9 °F 44% 30.03 in 10.0 mi West 6.9 mph - N/A   Clear
9:54 AM 73.9 °F 44.1 °F 34% 30.02 in 10.0 mi WSW 9.2 mph 19.6 mph N/A   Clear
10:54 AM 75.9 °F 43.0 °F 31% 30.01 in 10.0 mi WSW 11.5 mph 21.9 mph N/A   Clear
11:54 AM 78.1 °F 45.0 °F 31% 29.99 in 10.0 mi West 10.4 mph - N/A   Clear
12:54 PM 80.1 °F 45.0 °F 29% 29.97 in 10.0 mi West 11.5 mph 17.3 mph N/A   Clear
1:54 PM 80.6 °F 46.4 °F 30% 29.95 in 10.0 mi WSW 19.6 mph 25.3 mph N/A   Clear
2:54 PM 82.9 °F 48.0 °F 29% 29.92 in 10.0 mi West 11.5 mph 16.1 mph N/A   Clear
3:54 PM 82.9 °F 48.0 °F 29% 29.90 in 10.0 mi SW 13.8 mph - N/A   Partly Cloudy
4:54 PM 82.9 °F 48.0 °F 29% 29.89 in 10.0 mi WSW 13.8 mph 19.6 mph N/A   Clear
5:54 PM 82.9 °F 48.0 °F 29% 29.88 in 10.0 mi WSW 9.2 mph - N/A   Clear
6:54 PM 80.1 °F 50.0 °F 35% 29.87 in 10.0 mi WSW 9.2 mph - N/A   Clear
7:54 PM 77.0 °F 50.0 °F 39% 29.86 in 10.0 mi SW 6.9 mph - N/A   Clear
8:54 PM 73.9 °F 51.1 °F 45% 29.88 in 10.0 mi SW 5.8 mph - N/A   Clear
9:54 PM 73.9 °F 52.0 °F 46% 29.91 in 10.0 mi WNW 4.6 mph - N/A   Mostly Cloudy
10:54 PM 73.0 °F 50.0 °F 44% 29.89 in 10.0 mi West 9.2 mph - 0.00 in   Clear
11:54 PM 69.1 °F 53.1 °F 57% 29.89 in 10.0 mi WSW 5.8 mph - N/A   Clear